Nampa, ID

12:31 AM MST on November 17, 2019 (GMT -0700)
Nampa

Weather History for KMAN - August, 2019

Change the Weather History Date:

Wednesday, August 21, 2019

  Actual Average (WUND) Record (WUND)
Temperature  
Mean Temperature 76 °F -  
Max Temperature 95 °F - - (-1)
Min Temperature 57 °F - - (-1)
Cooling Degree Days 11    
Growing Degree Days 26 (Base 50)    
Moisture  
Dew Point 48 °F    
Average Humidity 41    
Maximum Humidity 88    
Minimum Humidity 14    
Precipitation  
Precipitation 0.00 in - - ()
Sea Level Pressure  
Sea Level Pressure 29.87 in    
Wind  
Wind Speed 3 mph (NNW)    
Max Wind Speed 21 mph    
Max Gust Speed 30 mph    
Visibility 10 miles    
Events      
Averages and records for this station are not official NWS values.
T = Trace of Precipitation, MM = Missing Value Source: NWS Daily Summary

Daily Weather History Graph

Daily Weather History Graph

Search for Another Location

Airport or City:

Astronomy

Aug. 21, 2019 Rise Set
Actual Time 6:57 AM MDT 8:40 PM MDT
Civil Twilight 6:26 AM MDT 9:10 PM MDT
Nautical Twilight 5:49 AM MDT 9:47 PM MDT
Astronomical Twilight 5:09 AM MDT 10:27 PM MDT
Moon 11:49 PM MDT (8/21) 12:47 PM MDT (8/21)
Length of Visible Light 14h 43m
Length of Day
13h 42m
Waning Gibbous, 68% of the Moon is Illuminated
Aug 21
Waning Gibbous
Aug 23
Last Quarter
Aug 30
New
Sep 5
First Quarter
Sep 13
Full

Hourly Weather History & Observations

Time (MDT) Temp. Dew Point Humidity Pressure Visibility Wind Dir Wind Speed Gust Speed Precip Events Conditions
12:55 AM 66.2 °F 53.6 °F 64% 29.89 in 10.0 mi Calm Calm - N/A   Unknown
1:15 AM 66.2 °F 53.6 °F 64% 29.89 in 10.0 mi Calm Calm - N/A   Unknown
1:35 AM 64.4 °F 51.8 °F 64% 29.90 in 10.0 mi Calm Calm - N/A   Unknown
1:55 AM 64.4 °F 50.0 °F 59% 29.89 in 10.0 mi Calm Calm - N/A   Unknown
2:15 AM 64.4 °F 50.0 °F 59% 29.90 in 10.0 mi Calm Calm - N/A   Unknown
2:35 AM 66.2 °F 50.0 °F 56% 29.90 in 10.0 mi Calm Calm - N/A   Unknown
2:55 AM 64.4 °F 50.0 °F 59% 29.90 in 10.0 mi Calm Calm - N/A   Unknown
3:15 AM 66.2 °F 50.0 °F 56% 29.91 in 10.0 mi Calm Calm - N/A   Unknown
3:55 AM 60.8 °F 50.0 °F 68% 29.91 in 10.0 mi Calm Calm - N/A   Unknown
4:15 AM 62.6 °F 50.0 °F 63% 29.91 in 10.0 mi Calm Calm - N/A   Unknown
4:35 AM 64.4 °F 50.0 °F 59% 29.92 in 10.0 mi WNW 3.5 mph - N/A   Clear
4:55 AM 60.8 °F 51.8 °F 72% 29.92 in 10.0 mi Calm Calm - N/A   Unknown
5:15 AM 59.0 °F 51.8 °F 77% 29.92 in 10.0 mi Calm Calm - N/A   Unknown
5:35 AM 59.0 °F 53.6 °F 82% 29.92 in 10.0 mi Calm Calm - N/A   Clear
5:55 AM 59.0 °F 53.6 °F 82% 29.92 in 10.0 mi Calm Calm - N/A   Clear
6:15 AM 59.0 °F 53.6 °F 82% 29.93 in 10.0 mi East 3.5 mph - N/A   Clear
6:35 AM 59.0 °F 51.8 °F 77% 29.93 in 10.0 mi Calm Calm - N/A   Clear
6:55 AM 57.2 °F 53.6 °F 88% 29.93 in 9.0 mi Calm Calm - N/A   Clear
7:15 AM 59.0 °F 53.6 °F 82% 29.94 in 10.0 mi Calm Calm - N/A   Clear
7:35 AM 59.0 °F 53.6 °F 82% 29.94 in 10.0 mi Calm Calm - N/A   Clear
7:55 AM 60.8 °F 55.4 °F 82% 29.94 in 10.0 mi Calm Calm - N/A   Clear
8:15 AM 62.6 °F 55.4 °F 77% 29.96 in 10.0 mi Calm Calm - N/A   Clear
8:35 AM 64.4 °F 53.6 °F 68% 29.96 in 10.0 mi Calm Calm - N/A   Clear
8:55 AM 68.0 °F 53.6 °F 60% 29.96 in 10.0 mi Calm Calm - N/A   Clear
9:15 AM 71.6 °F 51.8 °F 50% 29.96 in 10.0 mi Calm Calm - N/A   Clear
9:35 AM 73.4 °F 50.0 °F 44% 29.97 in 10.0 mi North 4.6 mph - N/A   Clear
9:55 AM 75.2 °F 48.2 °F 38% 29.96 in 10.0 mi NNW 6.9 mph - N/A   Clear
10:15 AM 77.0 °F 48.2 °F 36% 29.97 in 10.0 mi NNW 10.4 mph - N/A   Clear
10:35 AM 78.8 °F 50.0 °F 36% 29.97 in 10.0 mi NNW 8.1 mph - N/A   Clear
10:55 AM 80.6 °F 50.0 °F 34% 29.97 in 10.0 mi North 8.1 mph - N/A   Clear
11:15 AM 80.6 °F 48.2 °F 32% 29.96 in 10.0 mi North 8.1 mph - N/A   Clear
11:35 AM 82.4 °F 50.0 °F 32% 29.96 in 10.0 mi Variable 6.9 mph - N/A   Clear
11:55 AM 84.2 °F 48.2 °F 29% 29.95 in 10.0 mi North 9.2 mph - N/A   Clear
12:15 PM 86.0 °F 48.2 °F 27% 29.94 in 10.0 mi North 8.1 mph - N/A   Clear
12:35 PM 86.0 °F 48.2 °F 27% 29.93 in 10.0 mi North 8.1 mph - N/A   Clear
12:55 PM 86.0 °F 48.2 °F 27% 29.92 in 10.0 mi Variable 6.9 mph - N/A   Clear
1:15 PM 87.8 °F 48.2 °F 25% 29.91 in 10.0 mi North 6.9 mph - N/A   Clear
1:35 PM 87.8 °F 48.2 °F 25% 29.90 in 10.0 mi North 6.9 mph - N/A   Clear
1:55 PM 89.6 °F 48.2 °F 24% 29.90 in 10.0 mi North 6.9 mph - N/A   Clear
2:15 PM 89.6 °F 46.4 °F 22% 29.89 in 10.0 mi North 9.2 mph - N/A   Clear
2:35 PM 91.4 °F 46.4 °F 21% 29.88 in 10.0 mi North 6.9 mph - N/A   Clear
2:55 PM 93.2 °F 44.6 °F 19% 29.87 in 10.0 mi NW 4.6 mph 13.8 mph N/A   Clear
3:15 PM 93.2 °F 42.8 °F 17% 29.85 in 10.0 mi NNW 9.2 mph - N/A   Clear
3:35 PM 91.4 °F 42.8 °F 18% 29.84 in 10.0 mi North 6.9 mph - N/A   Clear
3:55 PM 93.2 °F 42.8 °F 17% 29.83 in 10.0 mi North 6.9 mph - N/A   Clear
4:15 PM 93.2 °F 42.8 °F 17% 29.81 in 10.0 mi NNW 8.1 mph - N/A   Clear
4:35 PM 93.2 °F 44.6 °F 19% 29.80 in 10.0 mi North 6.9 mph - N/A   Clear
4:55 PM 95.0 °F 41.0 °F 15% 29.79 in 10.0 mi NNE 6.9 mph 12.7 mph N/A   Clear
5:15 PM 95.0 °F 42.8 °F 16% 29.78 in 10.0 mi NE 6.9 mph - N/A   Clear
5:35 PM 95.0 °F 39.2 °F 14% 29.77 in 10.0 mi Variable 5.8 mph - N/A   Clear
5:55 PM 95.0 °F 41.0 °F 15% 29.76 in 10.0 mi Variable 5.8 mph - N/A   Clear
6:15 PM 95.0 °F 42.8 °F 16% 29.75 in 10.0 mi North 6.9 mph - N/A   Clear
6:35 PM 95.0 °F 46.4 °F 19% 29.75 in 10.0 mi North 6.9 mph - N/A   Clear
6:55 PM 93.2 °F 44.6 °F 19% 29.74 in 10.0 mi NNE 5.8 mph - N/A   Clear
7:15 PM 93.2 °F 44.6 °F 19% 29.73 in 10.0 mi North 4.6 mph - N/A   Clear
7:35 PM 93.2 °F 44.6 °F 19% 29.73 in 10.0 mi North 6.9 mph - N/A   Clear
7:55 PM 93.2 °F 42.8 °F 17% 29.73 in 10.0 mi NNW 4.6 mph - N/A   Clear
8:15 PM 89.6 °F 44.6 °F 21% 29.73 in 10.0 mi NW 4.6 mph - N/A   Clear
8:35 PM 89.6 °F 42.8 °F 20% 29.73 in 10.0 mi NW 4.6 mph - N/A   Clear
8:55 PM 87.8 °F 44.6 °F 22% 29.74 in 10.0 mi WNW 3.5 mph - N/A   Clear
9:15 PM 82.4 °F 48.2 °F 30% 29.74 in 10.0 mi Calm Calm - N/A   Clear
9:35 PM 82.4 °F 46.4 °F 28% 29.78 in 6.0 mi NW 16.1 mph 25.3 mph N/A   Haze
9:55 PM 80.6 °F 46.4 °F 30% 29.79 in 10.0 mi NW 18.4 mph - N/A   Unknown
10:15 PM 78.8 °F 44.6 °F 30% 29.80 in 10.0 mi NNW 15.0 mph 23.0 mph N/A   Unknown
10:35 PM 77.0 °F 44.6 °F 32% 29.81 in 9.0 mi NW 13.8 mph 21.9 mph N/A   Unknown
10:55 PM 77.0 °F 44.6 °F 32% 29.83 in 10.0 mi NW 16.1 mph - N/A   Clear
11:15 PM 77.0 °F 44.6 °F 32% 29.84 in 10.0 mi NW 19.6 mph 29.9 mph N/A   Clear
11:35 PM 77.0 °F 46.4 °F 34% 29.85 in 10.0 mi NNW 20.7 mph 28.8 mph N/A   Unknown
11:55 PM 77.0 °F 46.4 °F 34% 29.87 in 10.0 mi NNW 16.1 mph 23.0 mph N/A   Unknown